Location: Bauen
(46.9356°N, 8.5784°E)
Time: 00:01:16
(UTC+00:00)

CZ-4B R/B - Pass Details

Date: 18 February 2020
Orbit: 497 x 646 km, 97.8° (Epoch: 03 April)

Event Time Altitude Azimuth Distance (km) Brightness Sun altitude
Rises 04:14:22 0° 12° (NNE) 2,861 7.7 -23.1°
Reaches altitude 10° 04:16:31 10° 12° (NNE) 1,975 6.9 -22.8°
Maximum altitude 04:20:50 86° 283° (WNW) 635 3.9 -22.0°
Enters shadow 04:22:47 33° 198° (SSW) 1,059 5.0 -21.7°
